Portland, ME

4:16 PM EST on December 11, 2019 (GMT -0500)
Portland International

Weather History for KPWM - October, 2019

Change the Weather History Date:

Thursday, October 3, 2019

  Actual Average Record
Temperature  
Mean Temperature 44 °F 53 °F  
Max Temperature 52 °F 63 °F 80 °F (2000)
Min Temperature 37 °F 43 °F 29 °F (1957)
Degree Days  
Heating Degree Days 20 12  
Month to date heating degree days 35 34  
Since 1 July heating degree days 197 255  
Cooling Degree Days 0 0  
Month to date cooling degree days 0 0  
Year to date cooling degree days 474 358  
Moisture  
Dew Point 36 °F    
Average Humidity 67    
Maximum Humidity 82    
Minimum Humidity 54    
Precipitation  
Precipitation T in 0.15 in 1.90 in (2009)
Month to date precipitation 0.22 0.45  
Year to date precipitation 34.95 33.88  
Snow  
Snow 0.00 in 0.00 in 0.00 in (2002)
Month to date snowfall 0.0 0.0  
Since 1 July snowfall 0.0 0.0  
Since 1 September snowfall 0.0 0.0  
Snow Depth 0.00 in    
Sea Level Pressure  
Sea Level Pressure 30.16 in    
Wind  
Wind Speed 6 mph ()    
Max Wind Speed 13 mph    
Max Gust Speed 20 mph    
Visibility 10.0 miles    
Events      
T = Trace of Precipitation, MM = Missing Value Source: Averaged Metar Reports

Daily Weather History Graph

Daily Weather History Graph

Search for Another Location

Airport or City:

Astronomy

Oct. 03, 2019 Rise Set
Actual Time 6:40 AM EDT 6:19 PM EDT
Civil Twilight 6:12 AM EDT 6:47 PM EDT
Nautical Twilight 5:38 AM EDT 7:20 PM EDT
Astronomical Twilight 5:05 AM EDT 7:54 PM EDT
Moon 12:18 PM EDT (10/3) 9:46 PM EDT (10/3)
Length of Visible Light 12h 35m
Length of Day
11h 38m
Waxing Crescent, 29% of the Moon is Illuminated
Oct 3
Waxing Crescent
Oct 5
First Quarter
Oct 13
Full
Oct 21
Last Quarter
Oct 27
New

Hourly Weather History & Observations

Time (EDT) Temp. Windchill Dew Point Humidity Pressure Visibility Wind Dir Wind Speed Gust Speed Precip Events Conditions
12:51 AM 46.0 °F 40.6 °F 35.1 °F 66% 30.13 in 10.0 mi NNE 11.5 mph 19.6 mph N/A   Mostly Cloudy
1:51 AM 44.1 °F 40.8 °F 34.0 °F 68% 30.15 in 10.0 mi NE 5.8 mph - N/A   Scattered Clouds
2:51 AM 43.0 °F 38.2 °F 33.1 °F 68% 30.15 in 10.0 mi NE 8.1 mph - N/A   Clear
3:51 AM 42.1 °F 36.6 °F 32.0 °F 67% 30.17 in 10.0 mi NNE 9.2 mph - N/A   Clear
4:51 AM 39.9 °F 35.8 °F 32.0 °F 73% 30.17 in 10.0 mi NNE 5.8 mph - N/A   Clear
5:51 AM 39.0 °F 35.7 °F 32.0 °F 76% 30.19 in 10.0 mi NNE 4.6 mph - N/A   Scattered Clouds
6:51 AM 37.9 °F 35.5 °F 32.0 °F 79% 30.22 in 10.0 mi North 3.5 mph - N/A   Scattered Clouds
7:51 AM 42.1 °F 37.7 °F 34.0 °F 73% 30.24 in 10.0 mi NNE 6.9 mph - N/A   Scattered Clouds
8:51 AM 46.0 °F 41.9 °F 35.1 °F 66% 30.25 in 10.0 mi NNE 8.1 mph - N/A   Mostly Cloudy
9:51 AM 48.0 °F - 36.0 °F 63% 30.23 in 10.0 mi NNE 10.4 mph - N/A   Mostly Cloudy
10:51 AM 48.9 °F - 35.1 °F 59% 30.24 in 10.0 mi NNE 3.5 mph - N/A   Mostly Cloudy
11:51 AM 51.1 °F - 36.0 °F 56% 30.21 in 10.0 mi Variable 4.6 mph - N/A   Mostly Cloudy
12:51 PM 51.1 °F - 36.0 °F 56% 30.20 in 10.0 mi Calm Calm - N/A   Mostly Cloudy
1:51 PM 51.1 °F - 37.0 °F 59% 30.18 in 10.0 mi South 3.5 mph - N/A   Mostly Cloudy
2:51 PM 51.1 °F - 37.0 °F 59% 30.17 in 10.0 mi Variable 4.6 mph - N/A   Mostly Cloudy
3:51 PM 50.0 °F - 37.0 °F 61% 30.16 in 10.0 mi South 9.2 mph - N/A   Overcast
4:51 PM 50.0 °F - 37.0 °F 61% 30.14 in 10.0 mi South 6.9 mph - N/A   Overcast
5:51 PM 50.0 °F - 37.9 °F 63% 30.13 in 10.0 mi South 5.8 mph - N/A   Overcast
6:51 PM 48.9 °F - 37.9 °F 66% 30.13 in 10.0 mi SSW 5.8 mph - N/A   Overcast
7:51 PM 48.9 °F - 39.0 °F 69% 30.12 in 10.0 mi SW 4.6 mph - N/A   Overcast
8:51 PM 48.9 °F - 39.0 °F 69% 30.10 in 10.0 mi Calm Calm - N/A   Overcast
9:51 PM 48.9 °F - 39.9 °F 71% 30.08 in 10.0 mi Calm Calm - N/A   Overcast
10:51 PM 48.9 °F - 41.0 °F 74% 30.05 in 10.0 mi Calm Calm - N/A   Overcast
11:51 PM 48.9 °F - 42.1 °F 77% 30.04 in 10.0 mi West 3.5 mph - 0.00 in   Overcast